Content
SEND FEEDBACK

Daily
Averages
Monthly
Summary
United States of America

STATEN ISLAND, NEW YORK


Home > North America > United States > New York
Elevation: 152 feet     Latitude: 40 35N     Longitude: 074 09W

WEATHER
 
SELECT A DAY
Number of Records: 189,642;   Date Range: 1/1/95 - 7/29/14
 
SHARE

PRINT THIS DATA

[ ← Previous Day ]
WEATHER ALMANAC - APRIL 20, 2013
[ Next Day → ]
[ °C ]   °F
Weather ElementAverageHighLow
Temperature54.5 °F61 °F (3:51 pm)48 °F (11:51 pm)
Dewpoint34.4 °F55.4 °F (12:29 am)21 °F (11:51 pm)
Humidity51.3 %92 % (3:51 am)25 % (5:51 pm)
Barometer29.95 in30.29 in (11:51 pm)29.69 in (12:29 am)
Wind Speed16.3 mph25.3 mph (12:29 am)
Wind Gust31.1 mph (12:29 am)
Weather ElementAverage
Visibility10 mi
Wind DirectionWNW (276.9 °)

Weather ElementTotal
Precipitation0.09 in
Heating Degree Days10.5 (Base 65)
Growing Degree Days4.5 (Base 50)
Averaged from 26 records on April 20, 2013
WEATHER CONDITIONS BREAKOUT
WIND DIRECTION BREAKOUT
WEATHER BY HOUR - APRIL 20, 2013
[ °C ]   °F
Local TimeTemperatureDewpointHumidityBarometerVisibilityWind DirectionWind SpeedGust SpeedPrecipitationEventsConditions
12:29 AM60.8 °F55.4 °F82 %29.69 in10.0 miWNW (290°)25.3 mph31.1 mph0.01 inRainLight Rain
12:42 AM57.2 °F51.8 °F82 %29.70 in10.0 miWNW (290°)13.8 mph0.01 inRainLight Rain
12:51 AM57.9 °F52.0 °F81 %29.71 in10.0 miWest (270°)11.5 mph0.02 inRainLight Rain
1:51 AM55.9 °F50.0 °F80 %29.71 in10.0 miNW (310°)10.4 mph0.01 inRainLight Rain
2:51 AM52.0 °F48.0 °F86 %29.76 in10.0 miWest (270°)10.4 mph0.02 inRainLight Rain
3:51 AM51.1 °F48.9 °F92 %29.75 in10.0 miWest (260°)8.1 mph0.02 inRainLight Rain
4:51 AM52.0 °F48.0 °F86 %29.78 in10.0 miWest (260°)11.5 mph0.00 inRainLight Rain
5:51 AM51.1 °F45.0 °F80 %29.84 in10.0 miWest (260°)13.8 mph0.00 inOvercast
6:51 AM51.1 °F41.0 °F68 %29.87 in10.0 miWest (270°)10.4 mphOvercast
7:51 AM51.1 °F37.0 °F59 %29.89 in10.0 miWest (280°)15.0 mphOvercast
8:51 AM52.0 °F32.0 °F47 %29.89 in10.0 miWNW (290°)20.7 mph27.6 mphMostly Cloudy
9:51 AM52.0 °F28.9 °F41 %29.94 in10.0 miWest (280°)20.7 mph29.9 mphMostly Cloudy
10:51 AM54.0 °F28.9 °F38 %29.97 in10.0 miWest (280°)21.9 mph28.8 mphMostly Cloudy
11:51 AM52.0 °F27.0 °F38 %30.00 in10.0 miWest (260°)21.9 mph27.6 mphMostly Cloudy
12:51 PM54.0 °F28.9 °F38 %29.99 in10.0 miWNW (290°)17.3 mph24.2 mphMostly Cloudy
1:51 PM57.0 °F28.0 °F33 %29.97 in10.0 miWest (270°)18.4 mph29.9 mphMostly Cloudy
2:51 PM59.0 °F27.0 °F29 %29.97 in10.0 miWSW (250°)18.4 mph27.6 mphScattered Clouds
3:51 PM61.0 °F28.0 °F29 %29.99 in10.0 miWest (260°)20.7 mph26.5 mphScattered Clouds
4:51 PM60.1 °F26.1 °F27 %30.01 in10.0 miWest (270°)20.7 mph31.1 mphScattered Clouds
5:51 PM60.1 °F24.1 °F25 %30.05 in10.0 miWest (280°)16.1 mphScattered Clouds
6:51 PM57.0 °F23.0 °F27 %30.08 in10.0 miWest (280°)17.3 mphScattered Clouds
7:51 PM55.0 °F24.1 °F30 %30.12 in10.0 miWest (270°)16.1 mph23.0 mphScattered Clouds
8:51 PM53.1 °F24.1 °F32 %30.17 in10.0 miWest (270°)15.0 mph23.0 mphScattered Clouds
9:51 PM52.0 °F24.1 °F34 %30.22 in10.0 miWest (270°)15.0 mphMostly Cloudy
10:51 PM50.0 °F23.0 °F35 %30.26 in10.0 miNW (310°)17.3 mph24.2 mphScattered Clouds
11:51 PM48.0 °F21.0 °F34 %30.29 in10.0 miNW (310°)15.0 mph25.3 mphPartly Cloudy
Hourly data recorded from KEWR, located miles away from Staten Island, New York







STORIES FROM OUR PARTNERS